Location: Vancouver
(49.2500°N, 123.1330°W)
Time: 11:44:24
(UTC-08:00)

S-56A Canister/Altair - Visible Passes

Search period start: 26 February 2017 00:00
Search period end: 08 March 2017 00:00
Orbit: 639 x 2495 km, 38.9° (Epoch: 25 February)

Date Brightness Start Highest point End Pass type
(mag) Time Alt. Az. Time Alt. Az. Time Alt. Az.
26 Feb 9.3 18:57:36 10° WSW 19:03:24 38° S 19:10:42 13° ESE visible
26 Feb 9.8 21:00:33 10° WSW 21:07:12 31° SSW 21:08:09 30° S visible
27 Feb 9.2 18:25:36 10° WSW 18:31:00 36° S 18:38:38 10° ESE visible
27 Feb 9.7 20:28:24 10° WSW 20:34:38 31° SSW 20:37:31 26° SSE visible
27 Feb 10.8 22:33:20 10° WSW 22:34:58 13° SW 22:34:58 13° SW visible
28 Feb 9.7 19:56:17 10° WSW 20:02:09 31° SSW 20:06:55 20° SSE visible
28 Feb 10.6 22:00:49 10° WSW 22:04:22 16° SW 22:04:22 16° SW visible
01 Mar 9.6 19:24:12 10° WSW 19:29:41 31° S 19:36:22 13° SE visible
01 Mar 10.4 21:28:24 10° WSW 21:33:22 18° SSW 21:33:49 18° SSW visible
02 Mar 9.5 18:52:09 10° WSW 18:57:17 30° S 19:04:22 10° SE visible
02 Mar 10.4 20:56:04 10° WSW 21:00:52 18° SSW 21:03:19 16° S visible
03 Mar 9.4 18:20:07 10° WSW 18:24:56 30° S 18:31:27 10° SE visible
03 Mar 10.3 20:23:48 10° WSW 20:28:24 18° SSW 20:32:53 13° S visible
04 Mar 10.2 19:51:35 10° WSW 19:55:58 19° SSW 20:01:30 10° SSE visible
05 Mar 10.1 19:19:24 10° WSW 19:23:35 19° SSW 19:28:49 10° SSE visible
06 Mar 10.0 18:47:17 10° WSW 18:51:14 19° SSW 18:56:10 10° SSE visible
